COOK1: Arkansas River Nr Coolidge, KS

                                SHEF ID:       COOK1     ARKANSAS R NR COOLIDGE, KS
STATION TYPE:
Regulating: Stage = 8.00, Flow = 2041

PRECIP STAGE STAGE(2) RIV-FLOW WTR-TEMP CONDUCT BAT-LOAD
in ft ft cfs F umho/cm volt
Ccp-Rev Ccp-Rev Ccp-Rev Ccp-Rev Ccp-Rev Ccp-Rev Ccp-Rev
(America/Chicago)
05/03 00:00 0.00 1.89 ---- 21 60.71 7250 12.49
05/03 01:00 0.00 1.86 ---- 19 59.38 7247 12.44
05/03 02:00 0.00 1.85 ---- 19 57.63 7252 12.38
05/03 03:00 0.00 1.85 ---- 19 56.41 7227 12.34
05/03 04:00 0.00 1.85 ---- 19 55.27 7220 12.30
05/03 05:00 0.00 1.85 ---- 19 54.30 7214 12.27
05/03 06:00 0.00 1.85 ---- 19 53.44 7205 12.25
05/03 07:00 0.00 1.85 ---- 19 52.54 7166 12.23
05/03 08:00 0.00 1.85 ---- 19 52.21 7130 12.25
05/03 09:00 0.00 1.85 ---- 19 53.60 7119 12.86
05/03 10:00 0.00 1.85 ---- 19 14.00 7110 13.48
05/03 11:00 0.00 1.86 ---- 19 61.36 7112 14.17
05/03 12:00 0.00 1.87 ---- 20 66.33 7124 14.29
05/03 13:00 0.00 1.86 ---- 19 70.74 7139 14.23
05/03 14:00 0.00 1.87 ---- 20 73.47 7148 14.12
05/03 15:00 0.00 1.86 ---- 19 74.62 7155 13.95
05/03 16:00 0.00 1.87 ---- 20 76.33 7168 13.88
05/03 17:00 0.00 1.86 ---- 19 77.00 7178 13.85
05/03 18:00 0.00 1.86 ---- 19 75.31 7171 13.41
05/03 19:00 0.00 1.87 ---- 20 72.43 7144 13.34
05/03 20:00 0.00 1.88 ---- 20 69.60 7103 13.21
05/03 21:00 0.00 1.87 ---- 20 67.33 7067 12.63
05/03 22:00 0.00 1.87 ---- 20 65.12 7047 12.62
05/03 23:00 0.00 1.87 ---- 20 63.25 7027 12.55
Data processed at Mon 04May2026 04:30 GMT

NOTICE: If you are parsing this page

Please convert to using our Data API. Starting early 2026 we will be migrating to: https://water.usace.army.mil with modern pages rendered in JavaScript. When this migration completes you will no longer be able to scrape this page! CWMSDataAPI (CDA)

Timeseries IDs (TSIDs)

TSIDs used from left to right in the data table
COOL.Precip-Inc.Total.1Hour.1Hour.Ccp-Rev
COOL.Stage.Inst.1Hour.0.Ccp-Rev
COOL.Stage-Alt.Inst.1Hour.0.Ccp-Rev
COOL.Flow.Inst.1Hour.0.Ccp-Rev
COOL.Temp-Water.Inst.1Hour.0.Ccp-Rev
COOL.Cond.Inst.1Hour.0.Ccp-Rev
COOL.Volt-Battery Load.Inst.1Hour.0.Ccp-Rev

                            

All information presented herein is the property of the government of the United States of America and may be revised or deleted at any time without prior notice. Dissemination of this information without the expressed written consent of the Public Affairs Office, Tulsa District U.S. Army Corps of Engineers is strictly prohibited. These data are gathered electronically and, as presented, have NOT undergone any form of quality control. These data are NOT guaranteed to be valid or correct.